| time (UTC) | temp F | wind direction | speed MPH | gust MPH | rain 1hr in | rain 24hr in | rain mn in | humidity % | barometer mb |
| 20260506135005 | 47 | 308 | 2.0 | 6.0 | 0.00 | 1.24 | 0.40 | 93 | 1008.7 |
| 20260506134504 | 47 | 308 | 3.0 | 11.0 | 0.00 | 1.24 | 0.40 | 93 | 1008.7 |
| 20260506134005 | 47 | 302 | 1.0 | 11.0 | 0.00 | 1.24 | 0.40 | 93 | 1008.6 |
| 20260506133504 | 47 | 304 | 0.0 | 2.0 | 0.00 | 1.24 | 0.40 | 93 | 1008.4 |
| 20260506133004 | 47 | 329 | 0.0 | 1.0 | 0.00 | 1.24 | 0.40 | 93 | 1008.4 |
| 20260506132504 | 47 | 316 | 0.0 | 2.0 | 0.00 | 1.24 | 0.40 | 93 | 1008.4 |
| 20260506132005 | 47 | 306 | 0.0 | 2.0 | 0.00 | 1.24 | 0.40 | 93 | 1008.3 |
| 20260506131504 | 47 | 306 | 0.0 | 2.0 | 0.00 | 1.24 | 0.40 | 93 | 1008.1 |
| 20260506131004 | 47 | 308 | 0.0 | 2.0 | 0.00 | 1.24 | 0.40 | 93 | 1008.2 |
| 20260506125503 | 47 | 311 | 1.0 | 4.0 | 0.00 | 1.24 | 0.40 | 93 | 1007.8 |
| 20260506124504 | 47 | 314 | 2.0 | 5.0 | 0.00 | 1.24 | 0.40 | 93 | 1007.7 |
| 20260506124005 | 46 | 311 | 2.0 | 5.0 | 0.00 | 1.24 | 0.40 | 93 | 1007.6 |
| 20260506123004 | 46 | 289 | 2.0 | 4.0 | 0.00 | 1.24 | 0.40 | 93 | 1007.4 |
| 20260506122504 | 46 | 288 | 1.0 | 4.0 | 0.00 | 1.24 | 0.40 | 93 | 1007.5 |
| 20260506122004 | 46 | 288 | 1.0 | 2.0 | 0.00 | 1.24 | 0.40 | 93 | 1007.4 |
| 20260506121505 | 46 | 288 | 1.0 | 3.0 | 0.00 | 1.25 | 0.40 | 93 | 1007.4 |
| 20260506121004 | 46 | 288 | 2.0 | 3.0 | 0.00 | 1.25 | 0.40 | 93 | 1007.5 |
| 20260506120504 | 46 | 287 | 2.0 | 3.0 | 0.00 | 1.25 | 0.40 | 93 | 1007.5 |
| 20260506115504 | 46 | 292 | 1.0 | 5.0 | 0.00 | 1.25 | 0.40 | 93 | 1007.4 |
| 20260506115004 | 46 | 301 | 2.0 | 5.0 | 0.00 | 1.25 | 0.40 | 93 | 1007.4 |
| 20260506114504 | 46 | 298 | 2.0 | 5.0 | 0.00 | 1.25 | 0.40 | 93 | 1007.7 |
| 20260506114004 | 46 | 293 | 2.0 | 5.0 | 0.00 | 1.25 | 0.40 | 93 | 1007.5 |
| 20260506113503 | 46 | 288 | 2.0 | 4.0 | 0.00 | 1.25 | 0.40 | 93 | 1007.2 |
| 20260506112005 | 46 | 288 | 1.0 | 3.0 | 0.00 | 1.25 | 0.40 | 93 | 1007.0 |
| 20260506111503 | 46 | 0 | 0.0 | 0.0 | 0.00 | 1.25 | 0.40 | 93 | 1007.0 |
| 20260506111005 | 46 | 0 | 0.0 | 0.0 | 0.00 | 1.25 | 0.40 | 93 | 1007.3 |
| 20260506110503 | 46 | 282 | 0.0 | 3.0 | 0.00 | 1.25 | 0.40 | 93 | 1007.0 |
| 20260506110005 | 46 | 299 | 1.0 | 7.0 | 0.00 | 1.25 | 0.40 | 93 | 1006.6 |
| 20260506105503 | 46 | 300 | 2.0 | 7.0 | 0.01 | 1.25 | 0.40 | 93 | 1006.7 |
| 20260506105005 | 46 | 310 | 2.0 | 7.0 | 0.01 | 1.25 | 0.40 | 93 | 1007.0 |
| 20260506104503 | 46 | 353 | 1.0 | 3.0 | 0.02 | 1.25 | 0.40 | 93 | 1006.7 |
| 20260506104005 | 46 | 35 | 1.0 | 3.0 | 0.02 | 1.25 | 0.40 | 93 | 1006.4 |
| 20260506103503 | 46 | 43 | 0.0 | 3.0 | 0.02 | 1.25 | 0.40 | 93 | 1005.8 |
| 20260506103005 | 46 | 47 | 1.0 | 2.0 | 0.02 | 1.25 | 0.40 | 93 | 1005.8 |
| 20260506102504 | 46 | 47 | 1.0 | 2.0 | 0.03 | 1.25 | 0.40 | 93 | 1006.0 |
| 20260506102004 | 46 | 46 | 0.0 | 2.0 | 0.03 | 1.25 | 0.40 | 93 | 1005.9 |
| 20260506101504 | 46 | 0 | 0.0 | 0.0 | 0.04 | 1.25 | 0.40 | 93 | 1005.6 |
| 20260506101004 | 46 | 0 | 0.0 | 0.0 | 0.04 | 1.25 | 0.40 | 93 | 1005.3 |
| 20260506100004 | 46 | 0 | 0.0 | 0.0 | 0.05 | 1.25 | 0.40 | 93 | 1005.7 |
| 20260506095504 | 46 | 0 | 0.0 | 0.0 | 0.04 | 1.24 | 0.39 | 92 | 1006.0 |
| 20260506094504 | 46 | 0 | 0.0 | 0.0 | 0.03 | 1.23 | 0.38 | 93 | 1006.3 |
| 20260506094004 | 45 | 0 | 0.0 | 0.0 | 0.04 | 1.23 | 0.38 | 93 | 1006.6 |
| 20260506093504 | 45 | 0 | 0.0 | 0.0 | 0.04 | 1.23 | 0.38 | 93 | 1006.6 |
| 20260506093004 | 45 | 0 | 0.0 | 0.0 | 0.04 | 1.23 | 0.38 | 93 | 1006.5 |
| 20260506092504 | 45 | 0 | 0.0 | 0.0 | 0.03 | 1.22 | 0.37 | 92 | 1006.5 |
| 20260506092004 | 45 | 0 | 0.0 | 0.0 | 0.03 | 1.22 | 0.37 | 92 | 1006.4 |
| 20260506091503 | 45 | 0 | 0.0 | 0.0 | 0.03 | 1.21 | 0.36 | 92 | 1006.4 |
| 20260506091005 | 45 | 0 | 0.0 | 0.0 | 0.04 | 1.21 | 0.36 | 92 | 1006.3 |
| 20260506090504 | 45 | 0 | 0.0 | 0.0 | 0.04 | 1.20 | 0.35 | 92 | 1006.5 |
| 20260506090004 | 45 | 46 | 0.0 | 1.0 | 0.05 | 1.20 | 0.35 | 92 | 1006.4 |
| 20260506085504 | 45 | 61 | 0.0 | 2.0 | 0.06 | 1.20 | 0.35 | 92 | 1006.2 |
| 20260506085004 | 45 | 67 | 1.0 | 2.0 | 0.07 | 1.20 | 0.35 | 92 | 1006.1 |
| 20260506084504 | 45 | 23 | 1.0 | 3.0 | 0.08 | 1.20 | 0.35 | 92 | 1006.0 |
| 20260506084005 | 45 | 1 | 1.0 | 3.0 | 0.08 | 1.19 | 0.34 | 92 | 1006.0 |
| 20260506083503 | 45 | 355 | 1.0 | 2.0 | 0.08 | 1.19 | 0.34 | 92 | 1006.1 |
| 20260506083005 | 45 | 2 | 1.0 | 3.0 | 0.09 | 1.19 | 0.34 | 92 | 1005.9 |
| 20260506082503 | 45 | 354 | 1.0 | 3.0 | 0.10 | 1.19 | 0.34 | 92 | 1006.3 |
| 20260506082005 | 45 | 328 | 1.0 | 3.0 | 0.11 | 1.19 | 0.34 | 92 | 1006.1 |
| 20260506081503 | 45 | 318 | 1.0 | 3.0 | 0.11 | 1.18 | 0.33 | 92 | 1006.2 |
| 20260506081004 | 45 | 310 | 1.0 | 3.0 | 0.11 | 1.17 | 0.32 | 92 | 1006.4 |
| 20260506080504 | 46 | 311 | 1.0 | 2.0 | 0.11 | 1.16 | 0.31 | 92 | 1006.6 |
| 20260506073504 | 46 | 357 | 1.0 | 7.0 | 0.10 | 1.11 | 0.26 | 92 | 1006.2 |
| 20260506073004 | 46 | 332 | 1.0 | 4.0 | 0.09 | 1.10 | 0.25 | 92 | 1006.0 |
| 20260506072004 | 46 | 315 | 1.0 | 4.0 | 0.09 | 1.08 | 0.23 | 92 | 1005.9 |
| 20260506071504 | 46 | 320 | 1.0 | 4.0 | 0.08 | 1.07 | 0.22 | 92 | 1005.9 |
| 20260506070504 | 46 | 340 | 1.0 | 5.0 | 0.08 | 1.05 | 0.20 | 92 | 1005.9 |
| 20260506062504 | 47 | 322 | 1.0 | 4.0 | 0.07 | 1.00 | 0.15 | 92 | 1005.9 |
| 20260506062004 | 47 | 323 | 1.0 | 4.0 | 0.07 | 0.99 | 0.14 | 92 | 1006.0 |
| 20260506061504 | 47 | 327 | 1.0 | 4.0 | 0.08 | 0.99 | 0.14 | 92 | 1006.0 |
| 20260506061004 | 48 | 309 | 0.0 | 4.0 | 0.07 | 0.98 | 0.13 | 92 | 1006.0 |
| 20260506060504 | 48 | 312 | 1.0 | 3.0 | 0.06 | 0.97 | 0.12 | 92 | 1006.1 |
| 20260506050503 | 49 | 0 | 0.0 | 0.0 | 0.05 | 0.91 | 0.06 | 92 | 1006.4 |
| 20260506045004 | 49 | 356 | 0.0 | 4.0 | 0.05 | 0.89 | 0.04 | 92 | 1006.7 |
| 20260506044004 | 49 | 0 | 0.0 | 0.0 | 0.05 | 0.88 | 0.03 | 92 | 1006.6 |
| 20260506043504 | 49 | 0 | 0.0 | 0.0 | 0.05 | 0.88 | 0.03 | 92 | 1006.7 |
| 20260506043004 | 49 | 0 | 0.0 | 0.0 | 0.06 | 0.88 | 0.03 | 92 | 1006.8 |
| 20260506042504 | 49 | 0 | 0.0 | 0.0 | 0.06 | 0.87 | 0.02 | 92 | 1006.7 |
| 20260506042004 | 49 | 279 | 1.0 | 3.0 | 0.06 | 0.87 | 0.02 | 92 | 1006.8 |
| 20260506041503 | 49 | 279 | 1.0 | 3.0 | 0.06 | 0.87 | 0.02 | 92 | 1006.7 |
| 20260506041005 | 49 | 279 | 0.0 | 2.0 | 0.05 | 0.86 | 0.01 | 92 | 1006.8 |
| 20260506040503 | 49 | 0 | 0.0 | 0.0 | 0.06 | 0.86 | 0.01 | 92 | 1006.9 |
| 20260506040009 | 49 | 0 | 0.0 | 0.0 | 0.05 | 0.85 | 0.00 | 92 | 1006.9 |
| 20260506035004 | 50 | 0 | 0.0 | 0.0 | 0.06 | 0.84 | 0.84 | 92 | 1007.0 |
| 20260506034504 | 50 | 279 | 0.0 | 1.0 | 0.06 | 0.84 | 0.84 | 92 | 1007.1 |
| 20260506034004 | 50 | 279 | 0.0 | 2.0 | 0.06 | 0.83 | 0.83 | 92 | 1007.1 |
| 20260506033504 | 50 | 279 | 0.0 | 2.0 | 0.07 | 0.83 | 0.83 | 92 | 1007.1 |
| 20260506033005 | 50 | 278 | 1.0 | 4.0 | 0.07 | 0.82 | 0.82 | 92 | 1007.1 |
| 20260506032504 | 50 | 275 | 1.0 | 4.0 | 0.07 | 0.81 | 0.81 | 92 | 1007.1 |
| 20260506032005 | 50 | 275 | 0.0 | 4.0 | 0.10 | 0.81 | 0.81 | 91 | 1007.2 |
| 20260506031504 | 50 | 282 | 0.0 | 4.0 | 0.13 | 0.81 | 0.81 | 91 | 1007.3 |
| 20260506031004 | 50 | 289 | 0.0 | 1.0 | 0.15 | 0.80 | 0.80 | 91 | 1007.3 |
| 20260506030503 | 50 | 289 | 0.0 | 1.0 | 0.17 | 0.80 | 0.80 | 91 | 1007.4 |
| 20260506030005 | 50 | 289 | 0.0 | 1.0 | 0.18 | 0.80 | 0.80 | 91 | 1007.7 |
| 20260506025005 | 50 | 285 | 1.0 | 4.0 | 0.19 | 0.78 | 0.78 | 91 | 1007.8 |
| 20260506024005 | 50 | 210 | 2.0 | 6.0 | 0.21 | 0.77 | 0.77 | 91 | 1007.7 |
| 20260506023503 | 50 | 304 | 2.0 | 6.0 | 0.23 | 0.76 | 0.76 | 91 | 1007.7 |
| 20260506023005 | 50 | 313 | 1.0 | 3.0 | 0.23 | 0.75 | 0.75 | 90 | 1007.6 |
| 20260506022004 | 50 | 270 | 0.0 | 2.0 | 0.22 | 0.71 | 0.71 | 90 | 1006.9 |
| 20260506021504 | 50 | 270 | 0.0 | 2.0 | 0.20 | 0.68 | 0.68 | 90 | 1007.0 |
| 20260506021004 | 50 | 271 | 1.0 | 3.0 | 0.20 | 0.65 | 0.65 | 90 | 1007.0 |
| 20260506020504 | 50 | 315 | 1.0 | 3.0 | 0.20 | 0.63 | 0.63 | 90 | 1006.8 |
| 20260506020005 | 50 | 337 | 1.0 | 4.0 | 0.20 | 0.62 | 0.62 | 90 | 1006.9 |
| 20260506015503 | 50 | 337 | 0.0 | 4.0 | 0.19 | 0.60 | 0.60 | 90 | 1006.9 |
| 20260506014503 | 50 | 332 | 1.0 | 3.0 | 0.17 | 0.57 | 0.57 | 90 | 1006.7 |
| 20260506014005 | 50 | 314 | 0.0 | 3.0 | 0.16 | 0.56 | 0.56 | 90 | 1006.8 |
| 20260506013503 | 50 | 0 | 0.0 | 0.0 | 0.14 | 0.53 | 0.53 | 90 | 1006.8 |
| 20260506013004 | 50 | 304 | 0.0 | 3.0 | 0.13 | 0.52 | 0.52 | 89 | 1006.8 |
| 20260506012005 | 50 | 342 | 1.0 | 3.0 | 0.10 | 0.49 | 0.49 | 89 | 1006.7 |
| 20260506011503 | 50 | 2 | 0.0 | 3.0 | 0.08 | 0.47 | 0.47 | 89 | 1006.7 |
| 20260506011004 | 51 | 0 | 0.0 | 0.0 | 0.06 | 0.45 | 0.45 | 89 | 1006.4 |
| 20260506010504 | 51 | 102 | 0.0 | 1.0 | 0.04 | 0.43 | 0.43 | 89 | 1006.4 |
| 20260506010004 | 51 | 102 | 0.0 | 2.0 | 0.03 | 0.42 | 0.42 | 88 | 1006.5 |
| 20260506005504 | 51 | 77 | 1.0 | 4.0 | 0.02 | 0.41 | 0.41 | 88 | 1006.3 |
| 20260506005004 | 51 | 55 | 1.0 | 4.0 | 0.01 | 0.40 | 0.40 | 88 | 1006.3 |
| 20260506004504 | 52 | 357 | 0.0 | 3.0 | 0.02 | 0.40 | 0.40 | 88 | 1006.4 |
| 20260506004004 | 52 | 355 | 0.0 | 3.0 | 0.04 | 0.40 | 0.40 | 88 | 1006.4 |
| 20260506003503 | 52 | 43 | 1.0 | 3.0 | 0.04 | 0.39 | 0.39 | 88 | 1006.4 |
| 20260506003005 | 52 | 88 | 1.0 | 3.0 | 0.06 | 0.39 | 0.39 | 87 | 1006.4 |
| 20260506002503 | 52 | 74 | 1.0 | 6.0 | 0.07 | 0.39 | 0.39 | 87 | 1006.3 |
| 20260506002004 | 53 | 328 | 1.0 | 6.0 | 0.08 | 0.39 | 0.39 | 87 | 1006.4 |
| 20260506001504 | 53 | 30 | 1.0 | 3.0 | 0.10 | 0.39 | 0.39 | 87 | 1006.3 |
| 20260506001004 | 53 | 94 | 1.0 | 3.0 | 0.13 | 0.39 | 0.39 | 87 | 1006.2 |
| 20260506000504 | 53 | 69 | 2.0 | 3.0 | 0.18 | 0.39 | 0.39 | 87 | 1006.2 |
| 20260505235503 | 54 | 84 | 1.0 | 4.0 | 0.30 | 0.39 | 0.39 | 86 | 1006.3 |
| 20260505235005 | 55 | 90 | 0.0 | 3.0 | 0.31 | 0.39 | 0.39 | 86 | 1006.4 |
| 20260505234504 | 55 | 75 | 1.0 | 4.0 | 0.30 | 0.38 | 0.38 | 86 | 1006.4 |
| 20260505234004 | 56 | 72 | 1.0 | 4.0 | 0.29 | 0.36 | 0.36 | 86 | 1006.5 |
| 20260505233503 | 56 | 66 | 0.0 | 2.0 | 0.27 | 0.34 | 0.34 | 86 | 1006.5 |
| 20260505233004 | 56 | 60 | 0.0 | 1.0 | 0.26 | 0.33 | 0.33 | 85 | 1006.6 |
| 20260505232504 | 57 | 333 | 1.0 | 5.0 | 0.25 | 0.32 | 0.32 | 85 | 1006.5 |
| 20260505231504 | 58 | 338 | 1.0 | 3.0 | 0.22 | 0.29 | 0.29 | 85 | 1006.6 |
| 20260505231006 | 58 | 335 | 2.0 | 5.0 | 0.19 | 0.26 | 0.26 | 85 | 1006.3 |
| 20260505230107 | 59 | 319 | 1.0 | 4.0 | 0.06 | 0.13 | 0.14 | 86 | 1006.4 |
| 20260505225504 | 59 | 317 | 0.0 | 4.0 | 0.02 | 0.09 | 0.09 | 87 | 1005.9 |
| 20260505224504 | 60 | 0 | 0.0 | 0.0 | 0.01 | 0.08 | 0.08 | 87 | 1005.7 |
| 20260505224007 | 60 | 312 | 0.0 | 3.0 | 0.00 | 0.07 | 0.07 | 87 | 1005.8 |
| 20260505223504 | 60 | 312 | 0.0 | 3.0 | 0.00 | 0.07 | 0.07 | 87 | 1005.8 |
| 20260505223004 | 60 | 309 | 0.0 | 3.0 | 0.00 | 0.07 | 0.07 | 86 | 1005.9 |
| 20260505222504 | 60 | 309 | 0.0 | 3.0 | 0.00 | 0.07 | 0.07 | 86 | 1005.6 |
| 20260505222004 | 60 | 0 | 0.0 | 0.0 | 0.00 | 0.07 | 0.07 | 86 | 1005.6 |
| 20260505221504 | 60 | 306 | 0.0 | 2.0 | 0.00 | 0.07 | 0.07 | 86 | 1005.9 |
| 20260505221005 | 60 | 305 | 1.0 | 4.0 | 0.01 | 0.07 | 0.07 | 86 | 1005.9 |
| 20260505220504 | 60 | 305 | 1.0 | 4.0 | 0.02 | 0.07 | 0.07 | 86 | 1006.0 |
| 20260505220004 | 60 | 297 | 1.0 | 3.0 | 0.02 | 0.07 | 0.07 | 85 | 1006.0 |
| 20260505215503 | 60 | 298 | 1.0 | 3.0 | 0.02 | 0.07 | 0.07 | 85 | 1006.1 |
| 20260505214503 | 61 | 304 | 2.0 | 5.0 | 0.02 | 0.07 | 0.07 | 84 | 1006.0 |
| 20260505214005 | 61 | 309 | 1.0 | 5.0 | 0.02 | 0.07 | 0.07 | 83 | 1006.0 |
| 20260505213503 | 61 | 307 | 1.0 | 3.0 | 0.03 | 0.07 | 0.07 | 83 | 1006.0 |
| 20260505213005 | 61 | 308 | 1.0 | 3.0 | 0.03 | 0.07 | 0.07 | 83 | 1006.0 |
| 20260505212504 | 62 | 309 | 1.0 | 3.0 | 0.06 | 0.07 | 0.07 | 82 | 1005.9 |
| 20260505212005 | 62 | 310 | 1.0 | 3.0 | 0.06 | 0.07 | 0.07 | 82 | 1006.0 |
| 20260505211004 | 62 | 304 | 2.0 | 7.0 | 0.05 | 0.06 | 0.06 | 81 | 1006.3 |
| 20260505210504 | 63 | 303 | 1.0 | 6.0 | 0.04 | 0.05 | 0.05 | 80 | 1006.2 |
| 20260505210004 | 63 | 301 | 2.0 | 5.0 | 0.04 | 0.05 | 0.05 | 79 | 1005.9 |
| 20260505205504 | 63 | 301 | 1.0 | 5.0 | 0.04 | 0.05 | 0.05 | 79 | 1006.1 |
| 20260505205004 | 64 | 303 | 0.0 | 4.0 | 0.04 | 0.05 | 0.05 | 78 | 1006.1 |
| 20260505204504 | 64 | 303 | 1.0 | 5.0 | 0.04 | 0.05 | 0.05 | 77 | 1006.0 |
| 20260505204005 | 64 | 287 | 2.0 | 5.0 | 0.04 | 0.05 | 0.05 | 77 | 1006.0 |
| 20260505203503 | 64 | 284 | 2.0 | 6.0 | 0.03 | 0.04 | 0.04 | 76 | 1006.1 |
| 20260505202504 | 65 | 286 | 2.0 | 4.0 | 0.00 | 0.01 | 0.01 | 73 | 1005.8 |
| 20260505202004 | 65 | 274 | 1.0 | 3.0 | 0.00 | 0.01 | 0.01 | 72 | 1005.6 |
| 20260505201504 | 65 | 273 | 0.0 | 3.0 | 0.00 | 0.01 | 0.01 | 72 | 1005.5 |
| 20260505201004 | 65 | 273 | 0.0 | 2.0 | 0.00 | 0.01 | 0.01 | 71 | 1005.6 |
| 20260505200503 | 65 | 279 | 1.0 | 3.0 | 0.00 | 0.01 | 0.01 | 71 | 1005.6 |
| 20260505200005 | 65 | 286 | 1.0 | 3.0 | 0.00 | 0.01 | 0.01 | 71 | 1005.6 |
| 20260505195005 | 65 | 284 | 2.0 | 5.0 | 0.00 | 0.01 | 0.01 | 70 | 1005.8 |
| 20260505194503 | 65 | 308 | 2.0 | 5.0 | 0.00 | 0.01 | 0.01 | 70 | 1005.8 |
| 20260505194004 | 65 | 297 | 2.0 | 5.0 | 0.00 | 0.01 | 0.01 | 71 | 1005.8 |
| 20260505193504 | 65 | 287 | 1.0 | 4.0 | 0.00 | 0.01 | 0.01 | 70 | 1005.8 |
| 20260505192504 | 65 | 236 | 2.0 | 6.0 | 0.00 | 0.01 | 0.01 | 70 | 1005.8 |
| 20260505192004 | 65 | 237 | 2.0 | 6.0 | 0.00 | 0.01 | 0.01 | 70 | 1006.0 |
| 20260505191504 | 65 | 242 | 2.0 | 6.0 | 0.00 | 0.01 | 0.01 | 70 | 1005.9 |
| 20260505191004 | 65 | 245 | 2.0 | 6.0 | 0.00 | 0.01 | 0.01 | 70 | 1006.0 |
| 20260505190504 | 65 | 238 | 2.0 | 5.0 | 0.00 | 0.01 | 0.01 | 69 | 1005.9 |
| 20260505190004 | 65 | 243 | 2.0 | 5.0 | 0.00 | 0.01 | 0.01 | 68 | 1006.2 |
| 20260505184504 | 65 | 206 | 2.0 | 5.0 | 0.00 | 0.01 | 0.01 | 68 | 1006.5 |
| 20260505184004 | 65 | 217 | 3.0 | 10.0 | 0.00 | 0.01 | 0.01 | 68 | 1006.5 |
| 20260505183504 | 65 | 238 | 3.0 | 10.0 | 0.00 | 0.01 | 0.01 | 67 | 1006.5 |
| 20260505183004 | 66 | 238 | 2.0 | 9.0 | 0.00 | 0.01 | 0.01 | 66 | 1006.5 |
| 20260505182504 | 66 | 233 | 3.0 | 8.0 | 0.00 | 0.01 | 0.01 | 66 | 1006.5 |
| 20260505182004 | 66 | 253 | 3.0 | 9.0 | 0.00 | 0.01 | 0.01 | 66 | 1006.5 |
| 20260505181503 | 66 | 269 | 3.0 | 9.0 | 0.00 | 0.01 | 0.01 | 65 | 1006.3 |
| 20260505181005 | 66 | 262 | 4.0 | 7.0 | 0.00 | 0.01 | 0.01 | 64 | 1006.3 |
| 20260505180503 | 66 | 285 | 4.0 | 15.0 | 0.00 | 0.01 | 0.01 | 64 | 1006.3 |
| 20260505180005 | 67 | 284 | 4.0 | 15.0 | 0.00 | 0.01 | 0.01 | 64 | 1006.2 |
| 20260505175503 | 67 | 260 | 3.0 | 15.0 | 0.00 | 0.01 | 0.01 | 63 | 1006.2 |
| 20260505175005 | 67 | 288 | 3.0 | 11.0 | 0.00 | 0.01 | 0.01 | 63 | 1006.1 |
| 20260505174504 | 67 | 270 | 3.0 | 11.0 | 0.00 | 0.01 | 0.01 | 62 | 1006.1 |
| 20260505174004 | 67 | 259 | 3.0 | 10.0 | 0.00 | 0.01 | 0.01 | 62 | 1006.1 |
| 20260505173004 | 68 | 260 | 3.0 | 8.0 | 0.00 | 0.01 | 0.01 | 61 | 1006.0 |
| 20260505172504 | 68 | 281 | 5.0 | 17.0 | 0.00 | 0.01 | 0.01 | 61 | 1006.0 |
| 20260505172005 | 68 | 289 | 5.0 | 17.0 | 0.00 | 0.01 | 0.01 | 60 | 1005.9 |
| 20260505171504 | 68 | 290 | 4.0 | 11.0 | 0.00 | 0.01 | 0.01 | 61 | 1006.0 |
| 20260505171008 | 68 | 263 | 4.0 | 13.0 | 0.00 | 0.01 | 0.01 | 60 | 1006.0 |
| 20260505170503 | 68 | 242 | 4.0 | 13.0 | 0.00 | 0.01 | 0.01 | 60 | 1006.0 |
| 20260505170006 | 68 | 248 | 3.0 | 10.0 | 0.00 | 0.01 | 0.01 | 60 | 1005.9 |
| 20260505165504 | 68 | 284 | 4.0 | 15.0 | 0.00 | 0.01 | 0.01 | 59 | 1005.9 |
| 20260505164504 | 69 | 285 | 4.0 | 9.0 | 0.00 | 0.01 | 0.01 | 58 | 1006.0 |
| 20260505164004 | 70 | 280 | 4.0 | 10.0 | 0.00 | 0.01 | 0.01 | 57 | 1005.9 |
| 20260505163504 | 70 | 246 | 4.0 | 10.0 | 0.00 | 0.01 | 0.01 | 58 | 1005.8 |
| 20260505163004 | 70 | 234 | 5.0 | 10.0 | 0.00 | 0.01 | 0.01 | 57 | 1005.8 |
| 20260505161504 | 72 | 236 | 5.0 | 12.0 | 0.00 | 0.01 | 0.01 | 57 | 1005.8 |
| 20260505160504 | 72 | 238 | 4.0 | 12.0 | 0.00 | 0.01 | 0.01 | 59 | 1005.7 |
| 20260505152504 | 70 | 225 | 5.0 | 14.0 | 0.00 | 0.01 | 0.01 | 59 | 1005.1 |
| 20260505152004 | 70 | 221 | 4.0 | 12.0 | 0.00 | 0.01 | 0.01 | 62 | 1005.3 |
| 20260505151504 | 69 | 234 | 4.0 | 12.0 | 0.00 | 0.01 | 0.01 | 61 | 1005.5 |
| 20260505151005 | 69 | 243 | 4.0 | 13.0 | 0.00 | 0.01 | 0.01 | 62 | 1005.3 |
| 20260505150504 | 68 | 239 | 5.0 | 13.0 | 0.00 | 0.01 | 0.01 | 63 | 1005.3 |
| 20260505140504 | 64 | 228 | 7.0 | 21.0 | 0.00 | 0.01 | 0.01 | 71 | 1004.9 |